SPACEMOBILE-SSR02 DEB, 62370

Orbit data source: Space-Track

SPACEMOBILE-SSR02 DEB, 62370 is space debris in LEO originally from a launch on Thu, 12 Sep 2024 UTC launched from the Air Force Eastern Test Range (AFETR). Debris objects in space refer to the collection of defunct objects orbiting the Earth. Examples of debris include non-operational satellites, rocket bodies, and fragments generated from explosions, collisions, or faulty payload assembly.

Loading next visibility...
Identifier
62370, 2024-163G
Orbit
LEO
Last TLE update
6 hours ago
Origin
Manufacturer
AST & Science
Mission
Spacecraft
Bus & Motor
BW3 LVA, Unknown motor
Mass
150 kg wet, 150 kg dry
Launch date (UTC)
2024-09-12 (10 months ago)
Launch vehicle
Unknown
Launch site
Air Force Eastern Test Range (AFETR)
Object type
Payload
Rocket body
Debris
Shape & HBR
Cyl, 2 m
Radar Cross Section
1.963 m², Large (>1 m²)

Expand to show TLE details & history

TLE from 6 hours ago
0 SPACEMOBILE-SSR02 DEB
1 62370U 24163G   25182.16757352  .00010838  00000-0  40434-3 0  9996
2 62370  52.9462 115.5733 0010299 146.1938 213.9718 15.27902519 44444
Epoch: 2025-07-01T04:01Z
TLE epoch observation values (Epoch: 2025-07-01T04:01:18.352Z)
Latitude
0.00004°
Longitude
135.77995°
Altitude
488.821 km
Speed
7.619 km/s
True Right ascension
07h 42m 17s
True Declination
0° 00' 00"
Sunlit
Object was in daylight at epoch
Visualization orbit readout
Latitude
-36.19097°
Longitude
101.2789°
Altitude
500.493 km
Speed
7.61 km/s
Apparent Right ascension
07h 24m 58s
Apparent Declination
-42° 34' 31"
Sunlit
Object is in daylight
Visualization observer readout
Local Sidereal Time
21:44:00
Azimuth
107.294° ESE
Elevation
-63.913°
Doppler factor
1
Orbital elements
Apogee altitude
489.44 km
Perigee altitude
475.309 km
Semi-major axis
6,860.511 km
Eccentricity
0.00103
Inclination
52.9462°
RAAN
115.5733°
Arg. of periapsis
146.1938°
True anomaly
Unknown
Mean anomaly
213.9718°
Eccentric anomaly
Unknown
Mean motion
3.81952 °/min
Orbital period
94.25 mins
BSTAR
0.00040434
Loading maneuver chart data...
Loading SW <> Apogee altitude chart data...
Loading historical data...
Loading historical data...
Loading historical data...
Loading historical data...
Loading historical data...
Loading historical data...
Loading historical data...

SPACEMOBILE-SSR02 DEB Visibility forecast

Observer location: undefined°, undefined°

Span
Click to sort rows by Start time (UTC) header in descending order
Start Az.
Max El. time (UTC)
Max El. Az.
Max El.
End time (UTC)
End Az.
5 mins2025-07-01 21:26:37.294Z186.297° SSW2025-07-01 21:29:37.294Z125.233° SE23.998°2025-07-01 21:31:37.294Z82.627° E
5 mins2025-07-01 23:05:37.294Z273.93° WNW2025-07-01 23:07:37.294Z338.038° N31.559°2025-07-01 23:10:37.294Z36.339° NE
5 mins2025-07-02 04:02:37.294Z338.337° N2025-07-02 04:04:37.294Z25.359° NE26.093°2025-07-02 04:07:37.294Z88.777° E
5 mins2025-07-02 05:40:37.294Z285.757° WNW2025-07-02 05:42:37.294Z236.61° WSW31.213°2025-07-02 05:45:37.294Z161.905° S
|